sat.trackr.live / text

‹ back to catalog

STARLINK-34823

NORAD 65355 · 2025-190E

PAYLOAD ACTIVE UNKNOWN

§ Identity

Operator
Country
US
Launch date
2025-08-28
Launch site
AFETR
Launch vehicle
Mass (kg)
RCS (m²)

Purposes: comms

External: N2YO · Heavens-Above · Gunter

§ Orbital elements

Epoch: 2026-05-24T12:02:07.056384Z

Period
94.10 min
Inclination
53.1580°
Eccentricity
0.0000964
Mean motion
15.30215973 rev/d
Perigee alt
474.5 km
Apogee alt
475.8 km
Semi-major
6,853.3 km
B*
2.2027e-4
RAAN
175.9491°
Arg perigee
73.2209°
Mean anomaly
286.8898°
Rev number
4,136

§ Raw data

STARLINK-348231 65355U 25190E   26144.50147056  .00006173  00000+0  22027-3 0  99982 65355  53.1580 175.9491 0000964  73.2209 286.8898 15.30215973 41365

JSON: /api/v1/satellites/65355 · /tle

For live sub-satellite position, see the globe view (requires WebGL).

§ Visibility from observer

Set your observer location to see the next 7 days of passes ≥ 10°. The values pass through the URL so the page stays shareable.

No JS? Fill the form by hand. The geolocation button needs JavaScript.